Warning: Javascript must be enabled to use all the features on this page!


Page Loading - Please Wait...

Click to hideNews Bulletins

Peak Streamflow for the Nation

USGS 02407000 COOSA RIVER AT CHILDERSBURG AL

Shelby County, Alabama
Hydrologic Unit Code 03150107
Latitude  33°17'30", Longitude  86°21'50" NAD27
Drainage area 8,392.00  square miles
Contributing drainage area 8,392.00  square miles
Gage datum 382.45 feet above NGVD29
Output formats
Table
Graph
Tab-separated file
peakfq (watstore) format
Reselect output format
Water
Year
Date Gage
Height
(feet)
Stream-
flow
(cfs)
1916 1916-07-11 24.70 121,000
1917 1917-03-05 20.80 95,700
1918 1918-01-31 16.10 68,700
1919 1918-10-31 20.70 95,500
1920 1919-12-10 24.00 116,000
1921 1921-02-12 20.30 92,500
1922 1922-03-11 20.90 96,400
1923 1923-02-14 19.40 86,900
1924 1924-04-21 14.48 53,600
1925 1925-01-19 20.90 89,000
1926 1926-01-22 14.64 54,800
1927 1927-02-14 17.80 71,600
1928 1928-04-24 19.80 83,000
1929 1929-03-16 24.84 114,000
1930 1929-11-18 22.81 101,000
1931 1930-11-19 13.94 51,100
1932 1932-02-03 17.85 71,700
1933 1932-12-18 24.30 110,000
1934 1934-03-04 22.40 92,400
1935 1934-10-11 18.90 75,000
1936 1936-02-05 28.50 130,000
1937 1937-01-04 22.50 94,200
1938 1938-04-09 30.03 136,000
1939 1939-03-07 17.86 67,500
1940 1940-02-19 14.00 48,200
1941 1941-08-13 10.57 32,700
1942 1942-03-22 21.20 85,100
1943 1942-12-30 26.40 116,000
1944 1944-03-30 22.30 92,700
1945 1945-02-18 14.20 49,700
1946 1946-02-12 25.80 113,000
1947 1947-01-21 26.95 127,000
1948 1948-02-10 19.88 83,100
1949 1948-11-30 28.30 136,000
1950 1950-03-15 19.10 78,400
1951 1951-03-30 30.10 146,000
1952 1951-12-22 21.00 86,200
1953 1953-01-11 20.85 85,100
1954 1954-01-18 18.45 72,200
1955 1955-04-14 18.50 72,800
1956 1956-03-17 19.15 75,400
1957 1957-04-06 21.90 90,900
1958 1957-11-23 14.10 49,200
1959 1959-02-16 13.08 44,400
1960 1960-03-04 14.60 51,600
1961 1961-02-23 30.41 140,000
1962 1961-12-19 23.17 98,500
1963 1963-05-01 21.49 88,600
1964 1964-04-07 20.81 84,600
1965 1965-02-12 15.40 60,000
1966 1966-02-17 18.60 76,000
1967 1967-08-22 14.83 57,200
1968 1968-01-11   68,0001
1969 1969-05-20 18.04 55,900
1970 1970-03-20   94,7001
1971 1971-03-03 19.822 54,8001
1972 1972-01-13   55,8001
1973 1973-04-26   54,8001
1974 1974-04-05   55,3001
1975 1975-01-26   54,5001
1976 1976-01-26   78,400
1977 1977-04-06   104,0001
1978 1978-05-09   56,0001
1979 1979-04-14 28.99 150,000
1980 1980-03-21 22.92 99,500
1981 1981-02-12 17.96 52,300
1982 1982-02-04 19.60 62,600
1983 1983-05-21 21.27 81,000
1984 1983-12-06 21.82 85,900
1985 1985-02-06   59,0002
1986 1986-02-18 15.97 31,700
1987 1987-02-28 19.31 63,700
1988 1988-01-21 17.31 48,300
1989 1989-06-22 21.53 84,600
1990 1990-03-17 24.62 110,000
1991 1991-02-22 19.42 63,700
1992 1992-02-26 18.50 56,800
1993 1992-11-05 18.80 64,300
1994 1994-04-16 19.05 64,900
1995 1995-03-08 19.02 66,000
1996 1996-02-02 22.45 90,000
1997 1997-03-03 19.58  
1998 1998-03-09 20.05  
1999 1999-01-26 17.15  
2000 2000-04-04 21.54  
2001 2001-04-04 19.46  
2002 2002-01-26 18.79  
2003 2003-05-09 24.96  
2004 2004-09-18 17.01  
2005 2005-04-01 18.84  
2006 2006-02-07 16.55  
2007 2007-01-09 15.76  
2008 2008-08-27 15.83  
2009 2009-01-12 19.28  
2010 2010-03-11 21.35  
2011 2011-03-10 20.16  
2012 2012-03-03 16.41 42,100
2013 2013-05-19 19.922 78,000
2014 2014-04-08 20.522 79,600
2015 2015-01-05   43,7001
2016 2015-12-26 23.04 65,000
2017 2017-04-06 17.752 38,5002
2018 2018-02-12 18.63 64,600
2019 2019-02-25 22.11 97,900
?
  Peak Gage-Height Qualification Codes.
?
  Peak Streamflow Qualification Codes.